{"data":{"norad_id":65903,"intl_designator":"2025-224X","name":"STARLINK-35210","alt_names":[],"object_type":"PAYLOAD","status":"ACTIVE","operator":null,"country":"US","launch_date":"2025-10-07","launch_site_code":"AFETR","launch_vehicle":null,"mission":null,"orbit_class":"UNKNOWN","rcs_meters":null,"size_class":null,"mass_kg":null,"dimensions":null,"purposes":["comms"],"wikipedia_slug":null,"has_3d_model":false,"image_url":null,"decayed_at":null,"tle_current":{"epoch":"2026-05-24T22:34:50.613312Z","epoch_age_seconds":90877,"freshness":"FRESH","line1":"1 65903U 25224X   26144.94086358  .00047053  00000+0  15917-2 0  9991","line2":"2 65903  53.1571  17.5200 0001150  56.5273 303.5838 15.30179986 36522","mean_motion":15.30179986,"eccentricity":0.000115,"inclination_deg":53.1571,"raan_deg":17.52,"arg_perigee_deg":56.5273,"mean_anomaly_deg":303.5838,"bstar":0.0015917,"rev_number":3652,"period_min":94.106576557981,"perigee_km":474.48668590687,"apogee_km":476.06297062737,"semimajor_km":6853.4118282671,"source":"CELESTRAK","updated_at":"2026-05-25T13:38:20.983704Z"}}}